WZZ68 EDLW-EPWR

Flight info

Callsign WZZ68
Flight time 1h 8m
Altitude 35000
Route GMH1U/24 GMH Q603 TESGA DCT ESATI DCT OSBIT L984 OKG DCT BALTU DCT LEGAZ DCT LAGAR/N0430F270 T871 DINOV
Aircraft A321/M-SDE3FGHIRWY/LB1

Departure

Time 2026-05-04 14:38
Airport Dortmund Airport (EDLW)

Arrival

Time 2026-05-04 15:46
Airport Copernicus Wrocław Airport (EPWR)
Time Latitude Longitude Altitude Speed Heading
2026-05-04 13:54 51.51642 7.61461 434 ft 0 kts 332°
2026-05-04 14:34 51.51645 7.61459 434 ft 2 kts 332°
2026-05-04 14:34 51.51666 7.61441 426 ft 5 kts 332°
2026-05-04 14:34 51.51706 7.61441 433 ft 8 kts 30°
2026-05-04 14:34 51.51750 7.61533 426 ft 13 kts 59°
2026-05-04 14:35 51.51803 7.61684 418 ft 20 kts 60°
2026-05-04 14:35 51.51880 7.61902 417 ft 23 kts 60°
2026-05-04 14:35 51.51963 7.62135 411 ft 24 kts 60°
2026-05-04 14:35 51.52047 7.62375 413 ft 25 kts 60°
2026-05-04 14:36 51.52122 7.62590 413 ft 20 kts 61°
2026-05-04 14:36 51.52177 7.62744 410 ft 14 kts 54°
2026-05-04 14:36 51.52259 7.62765 410 ft 12 kts 334°
2026-05-04 14:36 51.52323 7.62709 414 ft 8 kts 331°
2026-05-04 14:37 51.52338 7.62657 414 ft 5 kts 248°
2026-05-04 14:37 51.52335 7.62650 414 ft 0 kts 241°
2026-05-04 14:37 51.52256 7.62421 416 ft 64 kts 241°
2026-05-04 14:37 51.51906 7.61428 416 ft 137 kts 240°
2026-05-04 14:38 51.51386 7.59881 840 ft 162 kts 244°
2026-05-04 14:38 51.50857 7.58321 1870 ft 157 kts 239°
2026-05-04 14:38 51.50314 7.56811 2584 ft 157 kts 238°
2026-05-04 14:38 51.49738 7.55215 2825 ft 175 kts 239°
2026-05-04 14:39 51.49092 7.53427 2973 ft 195 kts 239°
2026-05-04 14:39 51.48387 7.51473 3105 ft 216 kts 239°
2026-05-04 14:39 51.47569 7.49318 3281 ft 234 kts 231°
2026-05-04 14:40 51.44454 7.47590 4161 ft 258 kts 170°
2026-05-04 14:40 51.42763 7.48631 4894 ft 263 kts 151°
2026-05-04 14:40 51.41257 7.50332 5658 ft 267 kts 141°
2026-05-04 14:40 51.39970 7.52504 6361 ft 272 kts 128°
2026-05-04 14:41 51.38950 7.55078 7013 ft 276 kts 123°
2026-05-04 14:41 51.37952 7.57716 7674 ft 279 kts 123°
2026-05-04 14:41 51.35927 7.63080 8995 ft 285 kts 123°
2026-05-04 14:42 51.33853 7.68564 10215 ft 294 kts 123°
2026-05-04 14:42 51.32752 7.71465 10355 ft 316 kts 123°
2026-05-04 14:42 51.31574 7.74565 10476 ft 336 kts 123°
2026-05-04 14:43 51.30299 7.77824 10597 ft 354 kts 128°
2026-05-04 14:43 51.28685 7.80804 10836 ft 364 kts 139°
2026-05-04 14:43 51.26646 7.83318 11349 ft 366 kts 150°
2026-05-04 14:43 51.24395 7.85093 11910 ft 367 kts 161°
2026-05-04 14:44 51.21978 7.86449 12470 ft 370 kts 162°
2026-05-04 14:44 51.19536 7.87807 13066 ft 373 kts 162°
2026-05-04 14:44 51.17104 7.89315 13651 ft 378 kts 156°
2026-05-04 14:44 51.14827 7.91457 14255 ft 382 kts 149°
2026-05-04 14:45 51.12583 7.93771 14901 ft 386 kts 149°
2026-05-04 14:45 51.10315 7.96100 15553 ft 390 kts 149°
2026-05-04 14:45 51.08019 7.98438 16129 ft 394 kts 149°
2026-05-04 14:45 51.05698 8.00785 16654 ft 397 kts 149°
2026-05-04 14:46 51.03361 8.03144 17220 ft 399 kts 149°
2026-05-04 14:46 51.01009 8.05518 17746 ft 402 kts 149°
2026-05-04 14:46 50.98641 8.07908 18275 ft 405 kts 149°
2026-05-04 14:46 50.96257 8.10315 18723 ft 407 kts 150°
2026-05-04 14:47 50.93864 8.12730 19157 ft 409 kts 150°
2026-05-04 14:47 50.91448 8.15164 19582 ft 412 kts 150°
2026-05-04 14:47 50.89020 8.17606 20002 ft 414 kts 150°
2026-05-04 14:47 50.86583 8.20053 20415 ft 417 kts 150°
2026-05-04 14:48 50.84127 8.22518 20814 ft 419 kts 150°
2026-05-04 14:48 50.81663 8.24995 21211 ft 421 kts 150°
2026-05-04 14:48 50.79185 8.27481 21591 ft 423 kts 150°
2026-05-04 14:48 50.76694 8.29972 21968 ft 425 kts 151°
2026-05-04 14:49 50.74186 8.32475 22340 ft 428 kts 151°
2026-05-04 14:49 50.71665 8.34991 22702 ft 430 kts 151°
2026-05-04 14:49 50.69131 8.37516 23059 ft 432 kts 151°
2026-05-04 14:49 50.66583 8.40050 23390 ft 434 kts 151°
2026-05-04 14:50 50.64021 8.42595 23706 ft 436 kts 151°
2026-05-04 14:50 50.61442 8.45150 23958 ft 439 kts 152°
2026-05-04 14:50 50.58851 8.47704 24257 ft 441 kts 152°
2026-05-04 14:50 50.56243 8.50278 24535 ft 443 kts 152°
2026-05-04 14:51 50.53661 8.52842 24813 ft 445 kts 151°
2026-05-04 14:51 50.51037 8.55444 25096 ft 447 kts 152°
2026-05-04 14:51 50.48397 8.58049 25437 ft 449 kts 152°
2026-05-04 14:51 50.45749 8.60679 25829 ft 452 kts 150°
2026-05-04 14:52 50.43253 8.63742 26159 ft 459 kts 141°
2026-05-04 14:52 50.40943 8.67221 26464 ft 462 kts 140°
2026-05-04 14:52 50.38625 8.70733 26763 ft 463 kts 140°
2026-05-04 14:52 50.36301 8.74241 27082 ft 464 kts 140°
2026-05-04 14:53 50.33975 8.77741 27503 ft 463 kts 140°
2026-05-04 14:53 50.31656 8.81222 27921 ft 462 kts 140°
2026-05-04 14:53 50.29346 8.84689 28343 ft 460 kts 140°
2026-05-04 14:53 50.27034 8.88161 28761 ft 459 kts 140°
2026-05-04 14:54 50.24729 8.91621 29177 ft 458 kts 140°
2026-05-04 14:54 50.22428 8.95060 29585 ft 458 kts 141°
2026-05-04 14:54 50.20132 8.98486 29993 ft 457 kts 141°
2026-05-04 14:54 50.17835 9.01909 30356 ft 456 kts 141°
2026-05-04 14:55 50.15540 9.05317 30686 ft 455 kts 141°
2026-05-04 14:55 50.13245 9.08718 31018 ft 454 kts 141°
2026-05-04 14:55 50.10999 9.12183 31339 ft 457 kts 136°
2026-05-04 14:55 50.09091 9.16177 31659 ft 463 kts 125°
2026-05-04 14:56 50.07654 9.20670 31879 ft 472 kts 114°
2026-05-04 14:56 50.06752 9.25649 32113 ft 479 kts 103°
2026-05-04 14:56 50.06467 9.30837 32374 ft 484 kts 92°
2026-05-04 14:56 50.06553 9.36015 32651 ft 485 kts 91°
2026-05-04 14:57 50.06630 9.41287 32940 ft 485 kts 91°
2026-05-04 14:57 50.06692 9.46530 33239 ft 485 kts 92°
2026-05-04 14:57 50.06745 9.51778 33531 ft 485 kts 92°
2026-05-04 14:57 50.06795 9.57039 33815 ft 485 kts 92°
2026-05-04 14:58 50.06827 9.60594 34004 ft 485 kts 92°
2026-05-04 14:58 50.06875 9.65780 34244 ft 485 kts 91°
2026-05-04 14:58 50.06926 9.71024 34527 ft 484 kts 91°
2026-05-04 14:58 50.06976 9.76250 34786 ft 483 kts 91°
2026-05-04 14:59 50.07028 9.81471 34944 ft 483 kts 91°
2026-05-04 14:59 50.07084 9.86705 34981 ft 484 kts 91°
2026-05-04 15:00 50.07233 10.02426 34969 ft 484 kts 92°
2026-05-04 15:00 50.07306 10.12921 34971 ft 484 kts 91°
2026-05-04 15:01 50.07358 10.28607 34972 ft 483 kts 92°
2026-05-04 15:01 50.07404 10.39073 34978 ft 484 kts 91°
2026-05-04 15:02 50.07459 10.49568 34987 ft 484 kts 91°
2026-05-04 15:02 50.07505 10.60044 34976 ft 484 kts 91°
2026-05-04 15:03 50.07525 10.70461 34992 ft 484 kts 92°
2026-05-04 15:03 50.07539 10.80935 34997 ft 484 kts 92°
2026-05-04 15:04 50.07539 10.91405 35002 ft 483 kts 92°
2026-05-04 15:04 50.07528 11.01881 35003 ft 484 kts 92°
2026-05-04 15:05 50.07509 11.12343 35007 ft 483 kts 92°
2026-05-04 15:05 50.07480 11.22812 35000 ft 484 kts 92°
2026-05-04 15:06 50.07445 11.33283 35002 ft 484 kts 92°
2026-05-04 15:07 50.07370 11.49006 34987 ft 484 kts 92°
2026-05-04 15:07 50.07303 11.59470 35016 ft 483 kts 92°
2026-05-04 15:08 50.07233 11.69939 35020 ft 483 kts 92°
2026-05-04 15:08 50.07169 11.80388 35018 ft 483 kts 92°
2026-05-04 15:09 50.07093 11.90773 35016 ft 482 kts 92°
2026-05-04 15:09 50.06996 12.01200 35003 ft 482 kts 92°
2026-05-04 15:10 50.06840 12.16839 35004 ft 481 kts 92°
2026-05-04 15:11 50.06636 12.32442 34992 ft 480 kts 93°
2026-05-04 15:11 50.06502 12.42829 34991 ft 480 kts 91°
2026-05-04 15:12 50.06715 12.53220 34991 ft 480 kts 88°
2026-05-04 15:12 50.07144 12.63605 34999 ft 481 kts 87°
2026-05-04 15:13 50.07524 12.73989 35009 ft 480 kts 88°
2026-05-04 15:13 50.07806 12.84387 35013 ft 480 kts 89°
2026-05-04 15:14 50.08044 12.94717 35000 ft 481 kts 89°
2026-05-04 15:14 50.08288 13.05122 35001 ft 481 kts 89°
2026-05-04 15:15 50.08542 13.15531 34973 ft 481 kts 89°
2026-05-04 15:15 50.08853 13.25941 34974 ft 481 kts 84°
2026-05-04 15:16 50.10559 13.35989 34973 ft 481 kts 65°
2026-05-04 15:16 50.12108 13.40609 34982 ft 480 kts 57°
2026-05-04 15:17 50.17391 13.53894 34973 ft 481 kts 57°
2026-05-04 15:17 50.22619 13.67213 34970 ft 481 kts 57°
2026-05-04 15:18 50.26135 13.76199 34970 ft 482 kts 57°
2026-05-04 15:19 50.31361 13.89559 34977 ft 482 kts 57°
2026-05-04 15:19 50.36598 14.03034 34982 ft 482 kts 58°
2026-05-04 15:20 50.40079 14.12016 34987 ft 482 kts 58°
2026-05-04 15:20 50.43542 14.21008 34992 ft 482 kts 58°
2026-05-04 15:21 50.45289 14.25490 40058 ft 481 kts 57°
2026-05-04 15:21 50.47059 14.29920 39811 ft 479 kts 57°
2026-05-04 15:21 50.50474 14.38859 38942 ft 475 kts 58°
2026-05-04 15:22 50.52136 14.43331 38413 ft 475 kts 58°
2026-05-04 15:22 50.53808 14.47827 37778 ft 475 kts 58°
2026-05-04 15:22 50.57186 14.56789 36510 ft 477 kts 58°
2026-05-04 15:23 50.58889 14.61257 35934 ft 476 kts 58°
2026-05-04 15:23 50.60585 14.65711 35500 ft 474 kts 58°
2026-05-04 15:23 50.62279 14.70181 35247 ft 475 kts 58°
2026-05-04 15:23 50.63951 14.74616 35048 ft 477 kts 58°
2026-05-04 15:24 50.66955 14.84000 34974 ft 482 kts 69°
2026-05-04 15:24 50.69327 14.93898 34970 ft 482 kts 69°
2026-05-04 15:25 50.71709 15.03803 34965 ft 483 kts 69°
2026-05-04 15:26 50.75271 15.18669 34971 ft 482 kts 69°
2026-05-04 15:26 50.78786 15.33548 34986 ft 482 kts 69°
2026-05-04 15:27 50.79936 15.38507 34787 ft 480 kts 70°
2026-05-04 15:27 50.81945 15.48541 33500 ft 483 kts 73°
2026-05-04 15:28 50.83751 15.58808 32023 ft 485 kts 74°
2026-05-04 15:28 50.84656 15.63952 31299 ft 487 kts 74°
2026-05-04 15:28 50.86535 15.74266 29862 ft 488 kts 73°
2026-05-04 15:29 50.87500 15.79424 29022 ft 488 kts 73°
2026-05-04 15:30 50.91343 16.00149 25534 ft 493 kts 74°
2026-05-04 15:30 50.92571 16.16012 23570 ft 478 kts 95°
2026-05-04 15:31 50.92135 16.26466 22086 ft 469 kts 95°
2026-05-04 15:31 50.91925 16.31605 21413 ft 465 kts 95°
2026-05-04 15:32 50.91300 16.46687 19443 ft 450 kts 95°
2026-05-04 15:32 50.91376 16.56535 18157 ft 443 kts 89°
2026-05-04 15:33 50.91609 16.66200 16798 ft 435 kts 89°
2026-05-04 15:34 50.91909 16.80366 14997 ft 426 kts 90°
2026-05-04 15:34 50.92003 16.85046 14440 ft 423 kts 90°
2026-05-04 15:34 50.92190 16.94295 13270 ft 417 kts 90°
2026-05-04 15:35 50.92364 17.03236 12630 ft 384 kts 90°
2026-05-04 15:35 50.92443 17.07337 12499 ft 361 kts 90°
2026-05-04 15:35 50.92394 17.11153 12356 ft 332 kts 100°
2026-05-04 15:36 50.91101 17.17762 11400 ft 305 kts 120°
2026-05-04 15:36 50.90152 17.20760 10735 ft 303 kts 120°
2026-05-04 15:36 50.89222 17.23721 10371 ft 293 kts 120°
2026-05-04 15:37 50.88334 17.26566 10235 ft 283 kts 120°
2026-05-04 15:37 50.87480 17.29307 10077 ft 273 kts 120°
2026-05-04 15:37 50.86705 17.32031 9651 ft 273 kts 107°
2026-05-04 15:37 50.86626 17.35010 9245 ft 271 kts 79°
2026-05-04 15:38 50.87386 17.37682 8685 ft 266 kts 50°
2026-05-04 15:38 50.88799 17.39485 8066 ft 260 kts 24°
2026-05-04 15:38 50.89874 17.40313 7656 ft 259 kts 24°
2026-05-04 15:38 50.91548 17.41194 7169 ft 247 kts
2026-05-04 15:39 50.93174 17.40818 6712 ft 232 kts 333°
2026-05-04 15:39 50.94446 17.39350 6212 ft 225 kts 306°
2026-05-04 15:39 50.95898 17.35010 5471 ft 223 kts 294°
2026-05-04 15:40 50.96582 17.32808 5124 ft 222 kts 294°
2026-05-04 15:40 50.97265 17.30618 5009 ft 222 kts 294°
2026-05-04 15:40 50.97954 17.28408 5016 ft 224 kts 294°
2026-05-04 15:40 50.98647 17.26184 5012 ft 225 kts 294°
2026-05-04 15:41 50.99342 17.23953 4935 ft 225 kts 294°
2026-05-04 15:41 51.00032 17.21733 4693 ft 224 kts 295°
2026-05-04 15:41 51.00720 17.19519 4403 ft 222 kts 295°
2026-05-04 15:41 51.01388 17.17368 4136 ft 217 kts 295°
2026-05-04 15:42 51.02051 17.15232 3848 ft 211 kts 295°
2026-05-04 15:42 51.02688 17.13174 3556 ft 210 kts 295°
2026-05-04 15:42 51.03330 17.11101 3286 ft 208 kts 295°
2026-05-04 15:42 51.03954 17.09085 3010 ft 197 kts 295°
2026-05-04 15:43 51.04545 17.07177 2760 ft 188 kts 295°
2026-05-04 15:43 51.05110 17.05345 2511 ft 181 kts 295°
2026-05-04 15:43 51.05646 17.03610 2293 ft 170 kts 295°
2026-05-04 15:43 51.06159 17.01949 2066 ft 164 kts 295°
2026-05-04 15:44 51.06648 17.00363 1886 ft 155 kts 295°
2026-05-04 15:44 51.07113 16.98851 1664 ft 150 kts 295°
2026-05-04 15:44 51.07572 16.97361 1454 ft 150 kts 295°
2026-05-04 15:44 51.08025 16.95890 1268 ft 149 kts 295°
2026-05-04 15:45 51.08476 16.94421 1088 ft 147 kts 294°
2026-05-04 15:45 51.08914 16.93005 846 ft 144 kts 294°
2026-05-04 15:45 51.09352 16.91574 698 ft 145 kts 294°
2026-05-04 15:45 51.09794 16.90127 515 ft 146 kts 295°
2026-05-04 15:46 51.10218 16.88740 404 ft 125 kts 296°
2026-05-04 15:46 51.10539 16.87699 401 ft 74 kts 296°
2026-05-04 15:46 51.10642 16.87362 402 ft 17 kts 296°
2026-05-04 15:46 51.10704 16.87245 404 ft 11 kts 355°
2026-05-04 15:47 51.10779 16.87292 403 ft 12 kts 25°
2026-05-04 15:47 51.10861 16.87356 403 ft 14 kts 26°
2026-05-04 15:47 51.10927 16.87406 399 ft 9 kts 25°
2026-05-04 15:47 51.10941 16.87491 404 ft 9 kts 107°
2026-05-04 15:48 51.10912 16.87587 403 ft 10 kts 116°
2026-05-04 15:48 51.10883 16.87686 403 ft 9 kts 116°
2026-05-04 15:48 51.10838 16.87832 399 ft 3 kts 116°
2026-05-04 15:49 51.10834 16.87844 401 ft 2 kts 116°
2026-05-04 15:49 51.10826 16.87871 403 ft 5 kts 116°
2026-05-04 15:49 51.10808 16.87931 403 ft 8 kts 116°
2026-05-04 15:49 51.10775 16.88037 403 ft 12 kts 115°
2026-05-04 15:50 51.10738 16.88160 403 ft 13 kts 115°
2026-05-04 15:50 51.10733 16.88176 402 ft 3 kts 116°
2026-05-04 15:50 51.10723 16.88225 403 ft 5 kts 92°
2026-05-04 15:50 51.10746 16.88269 403 ft 6 kts 34°
2026-05-04 15:51 51.10776 16.88294 403 ft 4 kts 26°
2026-05-04 15:51 51.10782 16.88299 403 ft 0 kts 26°